User: anonymous
Location: Nebula Knoll Observatory
(43.6666°N, 71.0000°W)
Time: 18:11:43
(UTC-04:00)
Language:

Cosmos 1782 - Orbit

View from above orbital plane
View from above orbital plane
View from above satellite
View from above satellite

Ground track
Ground track

The orbit data is extracted from the following two-line orbital elements,

1 16986U 86074A   14206.18029522  .00000303  00000-0  20410-4 0  8049
2 16986 082.5060 068.5476 0011496 358.8895 001.2303 15.02945303511688
Epoch (UTC): 25 July 2014 04:19:37
Eccentricity: 0.0011496
inclination: 82.5060°
perigee height: 550 km
apogee height: 566 km
right ascension of ascending node: 68.5476°
argument of perigee: 358.8895°
revolutions per day: 15.02945303
mean anomaly at epoch: 1.2303°
orbit number at epoch: 51168

The dashed part of the orbit path shows where the satellite is in the earth's shadow,  

DLR